Weather History for FAPP - December, 2012

Change the Weather History Date:

Friday, December 28, 2012

  Actual Average Record
Temperature  
Mean Temperature 71 °F -  
Max Temperature 82 °F - - ()
Min Temperature 60 °F - - ()
Cooling Degree Days 6    
Growing Degree Days 21 (Base 50)    
Moisture  
Dew Point 58 °F    
Average Humidity 69    
Maximum Humidity 88    
Minimum Humidity 42    
Precipitation  
Precipitation 0.00 in - - ()
Sea Level Pressure  
Sea Level Pressure 30.00 in    
Wind  
Wind Speed 3 mph ()    
Max Wind Speed 12 mph    
Max Gust Speed -    
Visibility 6.0 miles    
Events Rain , Thunderstorm    
T = Trace of Precipitation, MM = Missing Value Source: Averaged Metar Reports

Daily Weather History Graph

Daily Weather History Graph

Search for Another Location

Airport or City:

Trip Planner

Search our weather history database for the weather conditions in past years. The results will help you decide how hot, cold, wet, or windy it might be!

Date:

Astronomy

Dec. 28, 2012 Rise Set
Actual Time 5:15 AM SAST 6:51 PM SAST
Civil Twilight 4:50 AM SAST 7:17 PM SAST
Nautical Twilight 4:19 AM SAST 7:47 PM SAST
Astronomical Twilight 3:48 AM SAST 8:19 PM SAST
Moon 6:51 PM SAST (12/28) 5:11 AM SAST (12/28)
Length of Visible Light 14h 26m
Length of Day
13h 35m
Full, 100% of the Moon is Illuminated
Dec 28
Full
Dec 28
Full
Jan 5
Last Quarter
Jan 11
New
Jan 19
First Quarter

Hourly Weather History & Observations

Time (SAST) Temp. Heat Index Dew Point Humidity Pressure Visibility Wind Dir Wind Speed Gust Speed Precip Events Conditions
12:00 AM 64.4 °F - 57.2 °F 77% 30.04 in - NE 2.3 mph - N/A   Unknown
1:00 AM 62.6 °F - 57.2 °F 82% 30.01 in - West 2.3 mph - N/A   Unknown
2:00 AM 62.6 °F - 59.0 °F 88% 30.01 in - South 1.2 mph - N/A   Unknown
3:00 AM 62.6 °F - 57.2 °F 82% 30.01 in - SW 3.5 mph - N/A   Unknown
4:00 AM 62.6 °F - 57.2 °F 82% 30.01 in - WSW 2.3 mph - N/A   Unknown
5:00 AM 60.8 °F - 57.2 °F 88% 30.01 in 6.2 mi NE 3.5 mph - N/A   Partly Cloudy
6:00 AM 60.8 °F - 57.2 °F 88% 30.01 in - East 2.3 mph - N/A   Clear
7:00 AM 62.6 °F - 57.2 °F 82% 30.06 in - WNW 2.3 mph - N/A   Clear
8:00 AM 66.2 °F - 57.2 °F 73% 30.06 in 6.2 mi West 3.5 mph - N/A   Partly Cloudy
8:43 AM 69.8 °F - 57.2 °F 64% 30.06 in 6.2 mi NW 4.6 mph - N/A   Partly Cloudy
9:00 AM 69.8 °F - 57.2 °F 64% 30.06 in 6.2 mi WNW 4.6 mph - N/A   Partly Cloudy
11:00 AM 77.0 °F - 57.2 °F 50% 30.04 in 6.2 mi WNW 5.8 mph - N/A   Scattered Clouds
12:00 PM 78.8 °F - 57.2 °F 47% 30.01 in 6.2 mi WNW 6.9 mph - N/A   Scattered Clouds
12:49 PM 82.4 °F 82.0 °F 57.2 °F 42% 29.98 in 6.2 mi NW 8.1 mph - N/A Thunderstorm Thunderstorm
1:00 PM 82.4 °F 82.0 °F 57.2 °F 42% 30.01 in 6.2 mi WNW 8.1 mph - N/A Thunderstorm Thunderstorm
1:22 PM 69.8 °F - 59.0 °F 68% 29.98 in 5.0 mi SSW 11.5 mph - N/A Rain , Thunderstorm Thunderstorms and Rain
2:00 PM 69.8 °F - 60.8 °F 73% 29.98 in 5.0 mi East 3.5 mph - N/A Rain , Thunderstorm Thunderstorms and Rain
3:00 PM 68.0 °F - 59.0 °F 73% 29.95 in 6.2 mi South 2.3 mph - N/A Thunderstorm Thunderstorm
4:00 PM 73.4 °F - 60.8 °F 65% 29.92 in 6.2 mi WSW 2.3 mph - N/A   Partly Cloudy
5:00 PM 75.2 °F - 57.2 °F 53% 29.95 in 6.2 mi West 1.2 mph - N/A   Partly Cloudy
6:00 PM 75.2 °F - 59.0 °F 57% 29.95 in 6.2 mi East 2.3 mph - N/A   Partly Cloudy
7:00 PM 71.6 °F - 62.6 °F 73% 29.95 in - NNW 3.5 mph - N/A   Clear
8:00 PM 69.8 °F - 59.0 °F 68% 29.98 in - ENE 3.5 mph - N/A   Clear
9:00 PM 68.0 °F - 59.0 °F 73% 30.01 in - East 2.3 mph - N/A   Unknown
10:00 PM 66.2 °F - 59.0 °F 78% 30.01 in - East 4.6 mph - N/A   Unknown
11:00 PM 68.0 °F - 59.0 °F 73% 30.04 in - ENE 4.6 mph - N/A   Unknown